Location: Spondin
(51.8528°N, 111.6118°W)
Time: 17:15:11
(UTC+00:00)

Vanguard 2 Rocket - Pass Details

Date: 30 May 2022
Orbit: 553 x 3323 km, 32.9° (Epoch: 02 July)

Event Time Altitude Azimuth Distance (km) Brightness Sun altitude
Rises 18:36:56 0° 214° (SSW) 7,043 11.7 58.6°
Reaches altitude 10° 18:42:32 10° 204° (SSW) 6,198 11.6 58.9°
Maximum altitude 18:57:57 29° 155° (SSE) 4,725 11.7 59.6°
Drops below altitude 10° 19:11:31 10° 104° (ESE) 5,476 11.1 59.9°
Sets 19:15:59 0° 94° (E) 6,138 11.2 60.0°
